This is the latest recevied weather packets stored in our database for station/object HUGOCO. If no packets are shown the sender has not sent any weather packets the latest 10 day(s).
| Time | Temp. | Humidity | Pressure | Rain* | Wind** | Luminosity | Snow |
|---|---|---|---|---|---|---|---|
| 1777501577 | 11.67° C | 53% | 1019.5 hPa | 0 mm | - | - | - |
| 1777501277 | 11.67° C | 52% | 1019.5 hPa | 0 mm | - | - | - |
| 1777500977 | 11.67° C | 55% | 1019.3 hPa | 0 mm | - | - | - |
| 1777500677 | 11.11° C | 54% | 1019.5 hPa | 0 mm | - | - | - |
| 1777500377 | 11.11° C | 55% | 1019.5 hPa | 0 mm | - | - | - |
| 1777500077 | 10.56° C | 57% | 1019.6 hPa | 0 mm | - | - | - |
| 1777499777 | 10.56° C | 57% | 1019.6 hPa | 0 mm | - | - | - |
| 1777499477 | 10.56° C | 57% | 1019.7 hPa | 0 mm | - | - | - |
| 1777499177 | 10.56° C | 56% | 1019.7 hPa | 0 mm | - | - | - |
| 1777498877 | 10.56° C | 56% | 1019.8 hPa | 0 mm | - | - | - |
| 1777498577 | 10.56° C | 57% | 1019.9 hPa | 0 mm | - | - | - |
| 1777498277 | 10° C | 56% | 1020 hPa | 0 mm | - | - | - |
| 1777497977 | 10° C | 57% | 1020.3 hPa | 0 mm | - | - | - |
| 1777497677 | 10.56° C | 59% | 1020.5 hPa | 0 mm | - | - | - |
| 1777497377 | 10.56° C | 57% | 1020.6 hPa | 0 mm | - | - | - |
| 1777497077 | 10.56° C | 57% | 1021 hPa | 0 mm | - | - | - |
| 1777496777 | 10.56° C | 55% | 1021.1 hPa | 0 mm | - | - | - |
| 1777496477 | 10.56° C | 55% | 1021.2 hPa | 0 mm | - | - | - |
| 1777496177 | 10.56° C | 57% | 1021.4 hPa | 0 mm | - | - | - |
| 1777495877 | 10.56° C | 53% | 1021.4 hPa | 0 mm | - | - | - |
| 1777495577 | 10.56° C | 54% | 1021.3 hPa | 0 mm | - | - | - |
| 1777495277 | 11.11° C | 54% | 1021.3 hPa | 0 mm | - | - | - |
| 1777494977 | 11.11° C | 51% | 1021.2 hPa | 0 mm | - | - | - |
| 1777494677 | 11.67° C | 49% | 1021.2 hPa | 0 mm | - | - | - |
| 1777494377 | 11.67° C | 48% | 1021.2 hPa | 0 mm | - | - | - |
* Rain latest hour (hover to see other rain measurements)
** Current wind speed in m/s (hover to see current wind gust speed)